Hourly Data Report for October 02, 2020

CARBERRY CS
MANITOBA
Current Station Operator: ECCC - MSC

49°54'20.900" N
99°21'26.800" W
383.50 m
5010547
71170
WZE

Download Data

Hourly Data (October 2020)
Hourly Data Report for October 2, 2020
TIME
LST
Temp Definition
°C
Dew Point Definition
°C
Rel Hum Definition
%
Precip. Amount Definition
mm

Wind Dir Definition
10's deg

Wind Spd Definition
km/h
Visibility Definition
km
Stn Press Definition
kPa
Hmdx Definition


Wind Chill Definition


Weather Definition


00:00 -1.2 -2.4 91 0.0 20 5   97.90   -3 LegendNANA
01:00 -0.9 -1.5 96 0.0 19 6   97.86   -3 LegendNANA
02:00 -0.5 -1.8 91 0.0 19 6   97.83   -3 LegendNANA
03:00 0.1 -0.9 93 0.0 20 7   97.78     LegendNANA
04:00 0.3 -0.9 91 0.0 17 9   97.74     LegendNANA
05:00 0.7 -0.6 91 0.0 16 9   97.69     LegendNANA
06:00 1.0 -0.6 89 0.0 15 9   97.66     LegendNANA
07:00 0.9 -0.1 93 0.0 14 9   97.64     LegendNANA
08:00 2.0 0.1 87 0.0 14 7   97.61     LegendNANA
09:00 3.0 0.0 81 0.0 15 11   97.61     LegendNANA
10:00 4.5 0.0 72 0.0 13 9   97.58     LegendNANA
11:00 5.9 0.3 67 0.0 14 7   97.53     LegendNANA
12:00 6.8 0.3 63 0.0 13 5   97.51     LegendNANA
13:00 7.5 0.0 59 0.0 6 5   97.47     LegendNANA
14:00 8.2 -0.4 55 0.0 14 6   97.43     LegendNANA
15:00 8.7 -0.6 52 0.0 11 5   97.40     LegendNANA
16:00 8.3 -0.4 54 0.0 9 7   97.42     LegendNANA
17:00 8.0 0.0 57 0.0 8 7   97.43     LegendNANA
18:00 7.4 0.5 61 0.0 7 6   97.44     LegendNANA
19:00 6.9 0.5 64 0.0 6 8   97.48     LegendNANA
20:00 6.2 1.5 72 0.0 8 5   97.48     LegendNANA
21:00 5.8 1.2 73 0.0 10 5   97.49     LegendNANA
22:00 5.6 1.1 73 0.0 12 7   97.51     LegendNANA
23:00 5.7 1.2 73 0.0 17 4   97.52     LegendNANA

Notes on Data Quality.

Legend

  • E = Estimated
  • M = Missing
  • NA = Not Available*
  • [empty] = Indicates an unobserved value
Date modified: